User: anonymous   Login
Location: Unspecified
(0.0000°N, 0.0000°E)
Time: 23:27:18
(UTC+00:00)
Language:

USA 247 - Orbit

View from above orbital plane
View from above orbital plane
View from above satellite
View from above satellite

Ground track
Ground track

The orbit data is extracted from the following two-line orbital elements,

1 39462U 13072A   24069.17095671 0.00000030  00000-0  53687-4 0    03
2 39462 122.9940 329.5699 0003930 171.1058 188.8941 13.41473538    02
Epoch (UTC): 09 March 2024 04:06:10
Eccentricity: 0.0003930
inclination: 122.9940°
perigee height: 1101 km
apogee height: 1107 km
right ascension of ascending node: 329.5699°
argument of perigee: 171.1058°
revolutions per day: 13.41473538
mean anomaly at epoch: 188.8941°
orbit number at epoch: 0

The dashed part of the orbit path shows where the satellite is in the earth's shadow,  

DLR